Wind_Speed
8 4 6 10 18 22 24 26 30 32 38 37 35 27 33 26 25 22 20 20 21 18 17 16 18 18 16 17 15 15 19 18
4 5 5 6 8 11 15 17 20 22 23 22 25 24 23 23 23 24 23 19 21 24 20 20 21 20 23 20 19 19 22 23
9 6 5 8 8 9 12 13 14 16 17 18 17 17 18 19 20 20 19 19 19 15 16 22 25 24 27 23 24 24 23 24
11 11 9 9 12 11 11 12 14 16 17 17 18 20 21 20 19 19 19 18 21 17 17 22 31 30 30 28 25 28 25 29
9 13 12 10 10 12 12 13 13 13 12 14 16 15 15 14 16 17 17 17 19 23 24 27 32 28 29 32 28 28 30 30
9 11 12 14 14 13 14 15 14 12 13 13 13 15 13 14 15 16 16 13 18 22 25 26 29 30 31 31 32 27 35 29
14 13 16 16 17 17 16 14 13 13 14 15 16 19 18 17 17 19 19 16 22 24 28 27 29 32 33 31 33 38 42 34
20 19 21 20 20 20 19 18 17 17 17 18 17 17 19 19 19 25 22 18 23 22 26 27 28 32 32 37 35 37 39 25
26 25 25 25 24 22 21 20 20 21 21 23 23 19 19 22 25 22 22 25 23 27 27 26 30 31 33 41 46 39 34 28
24 27 28 27 25 26 25 23 22 22 19 22 24 28 24 15 19 20 23 24 28 28 29 30 31 29 38 33 32 24 24 27
22 24 29 29 28 26 26 26 26 25 26 27 26 26 22 21 23 22 22 24 26 28 29 30 29 32 30 23 25 29 28 30
18 23 24 29 30 29 28 29 30 30 29 31 30 29 22 24 22 24 26 26 29 29 28 29 30 32 24 28 23 27 32 36
7 9 19 23 28 28 31 29 31 33 30 32 30 29 23 23 21 24 26 26 28 27 29 30 30 27 31 24 28 31 31 36
10 10 11 19 27 26 28 26 33 30 28 27 27 21 23 22 23 22 24 27 29 30 29 29 30 30 31 32 31 34 34 36
11 11 12 14 19 29 34 36 30 25 25 24 21 22 21 21 22 24 26 29 31 31 30 29 32 28 32 34 33 35 39 39
13 16 14 15 18 20 20 20 19 17 18 20 19 21 21 23 25 28 31 33 33 33 32 34 32 34 33 34 36 37 39 35
17 17 21 21 22 22 22 23 22 23 22 22 22 24 27 28 30 32 33 33 33 32 31 32 34 35 37 34 33 35 33 33
18 21 24 29 29 24 25 28 27 25 25 25 28 30 32 32 32 33 32 31 31 32 33 34 35 34 32 29 31 32 32 32
23 28 31 31 31 32 27 31 30 30 31 32 32 28 28 30 30 29 29 30 32 33 33 32 31 31 27 26 28 30 33 35
Wind_Direction
319 102 93 107 106 109 112 110 119 130 140 147 146 158 175 182 185 190 191 205 217 226 237 247 255 255 267 275 282 287 285 284
259 339 131 143 129 121 129 128 133 139 150 154 168 169 181 188 194 199 202 215 229 227 238 252 259 260 265 274 283 281 279 281
203 212 196 162 155 155 148 153 158 160 165 179 180 185 196 205 208 213 222 230 232 241 253 258 264 263 264 270 275 280 280 280
207 202 201 172 170 165 155 153 165 175 164 180 191 201 209 215 217 224 230 237 240 242 260 273 273 266 266 269 272 278 281 281
206 202 201 199 182 179 173 175 176 177 180 186 201 211 218 224 228 234 243 244 254 247 260 258 284 279 273 271 262 266 276 274
215 205 203 206 204 199 201 200 200 196 201 214 208 234 228 236 243 256 264 257 257 265 274 283 284 286 286 292 270 282 266 268
220 206 210 210 211 216 219 220 221 223 227 224 228 230 247 250 260 261 268 263 266 269 274 278 287 286 286 283 274 297 275 256
244 221 218 218 221 224 226 229 231 235 241 245 244 247 256 256 261 266 269 269 265 271 280 277 278 281 286 288 300 291 269 260
237 246 235 223 225 228 229 230 235 237 239 244 246 242 276 254 268 253 273 279 275 284 289 288 284 290 293 289 301 290 268 264
232 236 237 243 235 228 228 234 236 240 245 252 252 258 253 261 254 258 272 277 288 287 289 292 292 289 299 294 290 270 272 293
221 229 235 242 250 245 228 230 238 245 242 250 257 276 251 261 255 251 275 285 291 291 288 291 291 298 300 280 287 292 289 295
201 209 225 236 239 244 254 245 240 245 245 247 261 261 270 262 272 276 277 283 289 286 289 291 290 301 281 297 298 288 300 282
251 221 205 220 235 236 248 254 257 252 247 253 254 259 256 265 277 278 275 281 284 291 294 292 293 296 300 282 294 292 292 286
241 237 231 212 207 216 232 239 259 256 247 251 258 264 266 271 274 275 280 284 292 295 295 291 292 296 294 285 298 295 279 289
254 252 246 231 225 220 226 236 243 250 257 262 252 260 261 268 275 279 286 290 292 291 291 291 283 276 282 288 286 280 286 295
230 241 253 246 241 239 240 242 248 255 254 257 256 263 269 275 281 283 286 287 287 286 285 290 279 287 283 282 282 288 292 297
219 234 246 243 250 250 246 243 246 245 251 256 262 268 272 277 278 280 282 284 286 289 288 285 285 284 281 285 284 285 295 297
243 223 232 242 259 257 254 252 248 253 259 259 264 270 272 274 278 282 285 287 288 286 285 286 286 286 288 288 289 294 297 298
261 253 244 244 258 263 255 248 251 251 254 258 262 265 271 277 282 286 287 287 286 285 286 287 287 288 291 292 293 295 296 298
Height
3090 3094 3093 3094 3095 3095 3096 3096 3099 3102 3104 3110 3113 3120 3124 3129 3133 3137 3142 3145 3148 3150 3151 3151 3153 3154 3155 3155 3154 3153 3153 3153
3092 3091 3095 3096 3097 3099 3101 3102 3104 3107 3111 3114 3117 3122 3126 3129 3133 3138 3140 3142 3144 3145 3147 3148 3150 3152 3152 3152 3151 3151 3150 3149
3094 3095 3096 3098 3100 3101 3102 3105 3108 3109 3112 3116 3119 3123 3127 3131 3134 3136 3139 3140 3142 3143 3145 3147 3147 3148 3147 3148 3149 3147 3145 3144
3094 3095 3097 3098 3100 3103 3104 3107 3108 3111 3113 3116 3120 3123 3126 3128 3131 3134 3136 3139 3140 3140 3143 3144 3143 3143 3143 3143 3143 3142 3140 3137
3092 3095 3097 3098 3101 3104 3105 3108 3110 3112 3112 3114 3118 3121 3123 3126 3129 3131 3134 3136 3137 3137 3138 3139 3138 3137 3137 3133 3136 3134 3133 3130
3092 3094 3096 3099 3101 3103 3105 3107 3109 3110 3112 3114 3117 3120 3123 3125 3127 3128 3128 3131 3132 3133 3134 3134 3134 3132 3131 3129 3126 3127 3126 3123
3091 3093 3095 3097 3099 3101 3103 3105 3107 3109 3111 3114 3116 3120 3121 3123 3124 3125 3126 3128 3129 3129 3129 3128 3129 3127 3125 3123 3118 3118 3117 3113
3087 3088 3091 3094 3096 3099 3101 3103 3105 3108 3109 3111 3115 3118 3118 3120 3121 3120 3118 3121 3124 3124 3123 3122 3121 3120 3118 3116 3113 3111 3109 3109
3084 3085 3087 3090 3093 3095 3098 3100 3102 3104 3107 3108 3111 3113 3116 3115 3111 3114 3114 3115 3117 3117 3116 3115 3114 3113 3111 3109 3105 3102 3101 3102
3081 3083 3084 3086 3089 3091 3095 3097 3099 3101 3103 3104 3106 3108 3108 3108 3107 3109 3109 3109 3109 3110 3109 3109 3108 3106 3104 3101 3098 3097 3097 3098
3080 3081 3082 3083 3085 3088 3091 3094 3095 3097 3098 3097 3099 3100 3098 3100 3099 3098 3106 3105 3105 3104 3104 3102 3101 3100 3097 3094 3093 3093 3092 3091
3075 3078 3081 3081 3082 3084 3085 3088 3090 3091 3092 3092 3092 3093 3095 3096 3096 3101 3101 3101 3100 3099 3098 3096 3095 3093 3091 3089 3087 3086 3085 3084
3072 3073 3076 3078 3080 3081 3081 3082 3084 3084 3087 3086 3087 3090 3091 3093 3094 3094 3095 3095 3095 3093 3091 3090 3088 3087 3084 3084 3082 3080 3078 3076
3069 3070 3072 3075 3077 3079 3074 3075 3077 3080 3080 3082 3084 3086 3087 3088 3089 3090 3089 3089 3087 3086 3084 3082 3081 3080 3078 3077 3073 3072 3070 3068
3066 3066 3068 3069 3071 3074 3073 3072 3072 3075 3076 3078 3080 3081 3082 3082 3083 3083 3082 3081 3079 3078 3077 3075 3075 3073 3070 3070 3067 3064 3062 3059
3064 3062 3063 3064 3065 3066 3067 3067 3069 3071 3073 3074 3075 3077 3076 3076 3075 3075 3074 3073 3072 3070 3069 3067 3066 3064 3062 3060 3057 3055 3053 3051
3061 3060 3057 3058 3058 3062 3064 3066 3065 3067 3068 3069 3069 3070 3070 3070 3069 3068 3067 3065 3064 3063 3062 3061 3058 3056 3053 3050 3049 3047 3045 3043
3056 3058 3053 3051 3051 3056 3058 3059 3061 3062 3063 3063 3063 3063 3063 3062 3062 3060 3060 3058 3057 3056 3054 3051 3048 3044 3042 3043 3042 3040 3037 3034
3050 3049 3049 3046 3047 3046 3051 3053 3054 3055 3056 3057 3057 3056 3056 3055 3054 3052 3051 3050 3048 3046 3044 3042 3039 3037 3037 3036 3034 3031 3028 3026